Regional Weather Roundup
Issued by NWS Wakefield, VA

Home | Current Version | Previous Version | Text Only | Print | Product List | Glossary On
Versions: 1 2 3 4 5 6 7 8 9 10 11 12 13 14 15 16 17 18 19 20 21 22 23 24 25 26 27
000
ASUS41 KAKQ 031015
RWRAKQ

REGIONAL WEATHER ROUNDUP
NATIONAL WEATHER SERVICE WAKEFIELD VA
500 AM EST SAT DEC 03 2016

Note: "fair" indicates few or no clouds below 12,000 feet with no
significant weather and/or obstructions to visibility. * = Denotes
station may not report precipitation (e.g., rain,snow,etc.),
thunder or fog.

VAZ042-051-052>054-056-031100-
NORTHERN VIRGINIA

CITY           SKY/WX    TMP DP  RH WIND       PRES   REMARKS
WASH NATIONAL  PTCLDY    45  29  53 W13       30.16R
DULLES         PTCLDY    41  27  57 W13G22    30.16R
FORT BELVOIR   PTCLDY    44  28  53 W14       30.16R
QUANTICO       CLOUDY    43  28  55 VRB5      30.20R
FREDERICKSBRG* CLOUDY    40  30  68 SW6       30.19R
STAFFORD*      CLOUDY    40  28  61 SW5       30.23R
WARRENTON      NOT AVBL
CULPEPER*      CLOUDY    37  31  79 CALM      30.19R
MANASSAS*      MOCLDY    43  28  56 NW21G26   30.17R
LEESBURG*      PTCLDY    41  32  70 W10G16    30.16S
WINCHESTER     NOT AVBL
FRONT ROYAL*   NOT AVBL
LURAY*         CLOUDY    39  32  75 CALM      30.18R
$$

VAZ048-049-060>072-079>083-031100-
CENTRAL AND SOUTH CENTRAL VIRGINIA

CITY           SKY/WX    TMP DP  RH WIND       PRES   REMARKS
RICHMOND       NOT AVBL
CHESTERFIELD*  FAIR      34  14  44 W3        30.22R
PETERSBURG*    CLEAR     31  27  86 SW6       30.22R
HANOVER        CLEAR     30  26  85 CALM      30.21R
TAPPAHANNOCK*  NOT AVBL
QUINTON*       FAIR      31  29  90 W3        30.19R
CHARLOTTSVILLE CLEAR     39  24  55 VRB3      30.19R
GORDONSVILLE*  NOT AVBL
ORANGE*          N/A     32  30  93 CALM      30.21R
LOUISA*        CLEAR     32  30  93 SW3       30.18R
BUMPASS*       NOT AVBL
FARMVILLE*     CLEAR     32  28  84 CALM      30.21R
CREWE*         FAIR      36  26  66 W6        30.21R
FORT PICKETT*  FAIR      33  21  60 W5        30.21R
CHASE CITY*    FAIR      34  29  80 NW5       30.22F
CLARKSVILLE*   NOT AVBL
SOUTH HILL*    NOT AVBL
LAWRENCEVILLE* FAIR      33  27  80 CALM      30.22R
EMPORIA*       CLEAR     32  30  93 CALM      30.24R
$$

VAZ088>098-031100-
SOUTHEAST VIRGINIA

CITY           SKY/WX    TMP DP  RH WIND       PRES   REMARKS
NORFOLK        CLEAR     43  29  57 CALM      30.18
VIRGINIA BEACH CLEAR     39  27  62 W6        30.16R
NORFOLK NAVAL  CLEAR     43  31  62 NW12      30.19R
WEST POINT*    CLEAR     37  29  73 W5        30.21R
SALUDA*        FAIR      36  28  74 W5        30.18R
NEWPORT NEWS   CLEAR     40  28  62 NW7       30.19R
LANGLEY AFB    CLEAR     37  28  71 W7        30.18R
FORT EUSTIS    CLEAR     40  31  68 NW13      30.17R
WILLIAMSBURG*  CLEAR     37  30  75 CALM      30.20R
HR EXEC AP*    FAIR      27  21  80 CALM      30.18R
FRANKLIN*      CLEAR     31  29  89 W5        30.21S
US460-WAKEFLD  CLEAR     31  28  89 CALM      30.21R
$$

VAZ020-022-025-037-045-031100-
WEST CENTRAL AND SOUTHWEST VIRGINIA

CITY           SKY/WX    TMP DP  RH WIND       PRES   REMARKS
STAUNTON*      MOCLDY    33  25  74 W3        30.20S
WAYNESBORO*    NOT AVBL
HOT SPRINGS VA CLOUDY    27  23  86 NW14G26   30.10R WCI  15
LYNCHBURG      CLEAR     29  23  78 NW3       30.23R
DANVILLE       PTCLDY    31  29  92 CALM      30.23F
SOUTH BOSTON*  FAIR      36  25  65 NW3       30.23F
MARTINSVILLE   PTCLDY    35  27  74 NW3       30.25S
ROANOKE        CLOUDY    38  24  57 NW13      30.26R
BLACKSBURG     NOT AVBL
DUBLIN*        CLOUDY    36  26  67 NW13G18   30.25R
MARION*        CLOUDY    34  28  77 NW9G18    30.26S
HILLSVILLE*    CLOUDY    32  27  81 NW14G23   30.18S WCI  22
RICHLANDS*     NOT AVBL
WISE*          CLOUDY    32  28  86 NW3       30.25F
ABINGDON*      NOT AVBL
$$

MDZ021>025-VAZ099-100-031100-
SOUTHERN MARYLAND AND THE DELMARVA PENINSULA

CITY           SKY/WX    TMP DP  RH WIND       PRES   REMARKS
PATUXENT RIVER PTCLDY    39  27  62 W9        30.15R
BAY BRIDGE APT CLEAR     45  30  57 W17       30.11R
LEONARDTOWN    PTCLDY    39  28  65 W6        30.16R
DOVER          MOCLDY    41  31  67 W12       30.06R
GEORGETOWN     NOT AVBL
EASTON         CLEAR     44  30  57 NW13G18   30.14R
CAMBRIDGE      CLEAR     41  30  65 W10G16    30.11R
SALISBURY      CLEAR     39  29  67 W9        30.10R
OCEAN CITY     CLEAR     39  28  64 W7        30.10R
WALLOPS ISLAND CLEAR     41  31  67 W9        30.12R
ACCOMACK*      NOT AVBL
$$

NCZ012>017-030>032-031100-
NORTH CENTRAL AND EASTERN NORTH CAROLINA

CITY           SKY/WX    TMP DP  RH WIND       PRES   REMARKS
ROANOKE RAPIDS FAIR      36  30  80 CALM      30.22R
RALEIGH        PTCLDY    40  28  62 CALM      30.23S
ELIZABETH CITY CLEAR     34  30  85 W8        30.19R
AHOSKIE*       NOT AVBL
EDENTON*       CLEAR     36  33  87 CALM      30.21R
CURRITUCK*     CLEAR     38  32  79 W5        30.19R
KILL DEVIL HLS CLEAR     44  32  64 N10G18    30.15R
MANTEO         CLEAR     44  31  61 N15G23    30.17R
CAPE HATTERAS  CLEAR     46  36  68 N9G18     30.16
TARBORO*       NOT AVBL
GOLDSBORO      CLEAR     41  30  64 NW5       30.21S
WASHINGTON     CLEAR     35  31  86 CALM      30.22R
GREENVILLE     CLEAR     37  32  81 CALM      30.23R
NEW BERN       PTCLDY    39  32  76 NW5       30.22R
WILMINGTON     PTCLDY    39  34  82 NW5       30.21R
$$

VAZ048-031100-
ELSEWHERE

CITY           SKY/WX    TMP DP  RH WIND       PRES   REMARKS
HARRISBURG PA  MOCLDY    43  32  65 W14G22    30.06R
BALTIMORE      PTCLDY    41  30  65 W12       30.10R
ANNAPOLIS      CLEAR     45  29  53 W9G21     30.11R
ANDREWS AFB    PTCLDY    42  28  57 W10       30.13R
PHILADELPHIA   NOT AVBL
HENDERSON NC   CLEAR     34  24  66 NW5       30.22F
GREENSBORO     MOCLDY    41  29  62 NW8       30.22R
ROCKY MOUNT    NOT AVBL
$$

VAZ100-031100-
MARINE

STATION/POSITION TIME  TEMP    WIND        PRES    WAVE   SWELL
                       AIR SEA DIR/SP/G            HT/PER HT/PER
                 (UTC) (F)     (DEG/KT/KT) (MB)    (FT/S) (FT/S)
BRANDYWINE LGT   0948   43     290/ 23/ 26   N/A
CAPE MAY NJ      0948   44 47  290/ 20/ 29 1017.1R
LEWES DE         0948   42 49  280/ 15/ 17 1018.0R
OCEAN-CITY-INLET 0942   41 49  300/  9/ 13 1019.2R
WACHAPREAGUE VA  0942   44 50  270/  4/ 10 1020.5R
THOMAS POINT MD  1000   45 49  280/ 17/ 19   N/A
GOOSES REEF MD   1000   45 51  310/ 16/ 21 1021.0    2/ 3
COVE POINT MD    0942   44     320/ 12/ 21 1021.2R
SOLOMONS ISLAND  0942   45 52  300/  8/ 12   N/A
BISHOPS HEAD MD  0942   45 44  300/ 20/ 23 1020.5R
PINEY POINT MD   0948          290/ 11/ 13   N/A
POTOMAC MD       1000   44 52  290/ 16/ 19 1020.4    2/ 3
CAMBRIDGE MD     0942   45 48  280/ 12/ 19 1019.0R
LEWISETTA VA     0942   41 51  280/  8/ 10 1021.1R
RAPPAHANNOCK LGT 0948          300/ 22/ 26 1021.5R
STINGRAY PT      1000   41     290/ 12/ 16 1022.1    1/ 2
YORK RVR RNG VA  0942   43     300/ 15/ 17 1021.2R
YORKTOWN VA      0942   41 53  290/  7/  8 1021.6R
JAMESTOWN VA     1000   39 52  250/  8/  8   N/A     0
DOMINION TERM VA 0942   44     310/ 13/ 17 1021.9R
KIPTOPEKE VA     0942      52  310/ 21/ 25   N/A
CHES BAY BRIDGE  0942   45 53  310/ 19/ 22 1021.6R
CAPE HENRY VA    0942   45     300/ 19/ 23   N/A
WILLOUBY STN VA  0942   44     300/ 12/ 14 1022.7R
S CRANEY ISL VA  0942   42     280/  7/ 12 1021.8R
CAPE HENRY BUOY  0942      56                N/A     5/ 4
1ST LANDING BUOY 1000   45 53              1021.6    2/ 3
CAPE CHARLES BUO 0956      56                N/A     3/ 4
OFFSHORE WE BUOY 0951      56                N/A     6/ 5
64NM E OF VA BCH 0950   49 60  340/ 21/ 27 1019.2R   8/ 6
DUCK PIER NC     0942   44 56  310/ 14/ 18 1020.9R
44100 DUCK FRF   0935      57                N/A     6/ 6
OREGON INLET NC  0942   45 55  320/ 14/ 19 1020.9R
HATTERAS NC      0942   47 59  340/ 24/ 28 1020.8R
DIAMOND SHLS NC  0950   52 75  360/ 23/ 27 1020.2R   5/ 5   2/ 8
CAPE LOOKOUT NC  0900   46     340/ 13/ 17 1021.4S
$$




USA.gov is the U.S. government's official web portal to all federal, state and local government web resources and services.